Regional Weather Roundup
Issued by NWS

Home | Current Version | Previous Version | Text Only | Print | Product List | Glossary Off
Versions: 1 2 3 4 5 6 7 8 9 10 11 12 13 14 15 16 17 18 19 20 21 22 23 24 25 26 27 28 29 30 31 32 33 34 35 36 37 38 39 40 41 42 43 44 45 46 47 48 49 50

000
ASUS43 KLSX 260759
RWRMO

WEATHER SUMMARY FOR MISSOURI
NATIONAL WEATHER SERVICE SPRINGFIELD MO
300 AM CDT FRI MAY 26 2017

NOTE: "FAIR" INDICATES FEW OR NO CLOUDS BELOW 12,000 FEET WITH NO
       SIGNIFICANT WEATHER AND/OR OBSTRUCTIONS TO VISIBILITY.
       CURRENT SKY AND/OR WEATHER CONDITIONS ARE NOT AVAILABLE FOR
       CHILLICOTHE AND FARMINGTON.

MOZ001>031-035>038-043-044-053-054-260900-
...NORTHERN AND WESTERN MISSOURI...

CITY           SKY/WX    TMP DP  RH WIND       PRES   REMARKS
KANSAS CTY INT CLOUDY    65  58  78 W5        29.70R
KANSAS C DTWN  CLOUDY    68  58  70 SW6       29.68R
LEE`S SUMMIT   CLOUDY    67  58  72 VRB6G18   29.68R
ST JOSEPH      LGT RAIN  65  58  78 S8        29.67R
CHILLICOTHE      N/A     63  55  75 SE3       29.69F
KIRKSVILLE     CLOUDY    61  54  77 SE7       29.72F

$$
MOZ066>068-077>081-088>096-101>105-260900-
...SOUTHWEST MISSOURI...

CITY           SKY/WX    TMP DP  RH WIND       PRES   REMARKS
SPRINGFIELD    PTCLDY    68  57  68 E14       29.72R
JOPLIN         PTCLDY    69  60  73 SE10      29.64R

$$
MOZ032>034-039>042-045>050-055>058-069>072-260900-
...CENTRAL MISSOURI...

CITY           SKY/WX    TMP DP  RH WIND       PRES   REMARKS
COLUMBIA       PTCLDY    62  55  77 SE9       29.73F
JEFFERSON CITY PTCLDY    64  54  69 SE7       29.73F
ROLLA          PTCLDY    59  55  87 S9        29.76S
SEDALIA        CLEAR     63  58  83 SE9       29.70F
WARRENSBURG    CLOUDY    61  55  82 SE5       29.67F
OSAGE BEACH    CLOUDY    62  56  80 SE3       29.75S

$$
MOZ051-052-059>065-260900-
...EAST CENTRAL MISSOURI...

CITY           SKY/WX    TMP DP  RH WIND       PRES   REMARKS
ST LOUIS INTL  MOCLDY    66  53  63 S5        29.78F
SPIRIT OF STL  PTCLDY    63  54  72 CALM      29.76F
ST CHARLES     PTCLDY    60  56  86 E7        29.77F

$$
MOZ072>076-082>087-097>100-106>115-260900-
...SOUTH CENTRAL AND SOUTHEAST MISSOURI...

CITY           SKY/WX    TMP DP  RH WIND       PRES   REMARKS
CAPE GIRARDEAU PTCLDY    59  52  77 E3        29.83S
FARMINGTON     CLEAR     60  54  80 S6        29.82F
POPLAR BLUFF   CLEAR     60  58  92 CALM      29.82R
WEST PLAINS    MOCLDY    64  57  78 SE6       29.79F

$$




USA.gov is the U.S. government's official web portal to all federal, state and local government web resources and services.